FW2617 Weather Reports


time (UTC)temp
C
wind
direction
speed
KPH
gust
KPH
rain 1hr
cm
rain 24hr
cm
rain mn
cm
humidity
%
barometer
mb
20260507015425 15 52 4.8 8.0 0.00 0.03 0.03 85 1013.2
20260507014525 15 35 3.2 9.7 0.00 0.03 0.03 84 1012.9
20260507013604 15 34 4.8 14.5 0.00 0.03 0.03 84 1012.8
20260507012704 15 30 6.4 14.5 0.00 0.03 0.03 83 1012.5
20260507011804 15 25 6.4 12.9 0.00 0.03 0.03 83 1012.3
20260507010904 15 24 6.4 12.9 0.00 0.03 0.03 84 1012.1
20260507010004 15 26 6.4 14.5 0.00 0.03 0.03 83 1012.0
20260507005404 15 27 6.4 14.5 0.00 0.03 0.03 83 1011.9
20260507004504 15 29 6.4 14.5 0.00 0.03 0.03 83 1011.7
20260507003625 15 35 4.8 11.3 0.00 0.03 0.03 83 1011.9
20260507002705 16 37 4.8 9.7 0.00 0.03 0.03 82 1012.1
20260507001804 16 10 6.4 14.5 0.00 0.03 0.03 82 1012.0
20260507000925 16 4 6.4 14.5 0.00 0.03 0.03 82 1011.9
20260507000004 16 15 6.4 11.3 0.00 0.03 0.03 82 1011.9
20260506235425 16 18 6.4 14.5 0.00 0.03 0.03 81 1011.8
20260506234504 16 352 9.7 19.3 0.00 0.03 0.03 81 1011.6
20260506233625 16 18 8.0 16.1 0.00 0.03 0.03 79 1011.6
20260506232704 16 21 6.4 14.5 0.00 0.03 0.03 78 1011.2
20260506231804 16 25 8.0 17.7 0.00 0.03 0.03 78 1011.3
20260506230904 16 22 6.4 14.5 0.00 0.03 0.03 78 1011.3
20260506230025 16 19 8.0 16.1 0.00 0.03 0.03 78 1011.0
20260506225425 16 14 8.0 12.9 0.00 0.03 0.03 78 1011.2
20260506224525 16 4 6.4 14.5 0.00 0.03 0.03 78 1011.2
20260506223604 16 358 8.0 16.1 0.00 0.03 0.03 78 1011.2
20260506222704 16 3 8.0 17.7 0.00 0.03 0.03 78 1011.2
20260506221804 16 11 8.0 17.7 0.00 0.03 0.03 78 1011.1
20260506220904 16 359 8.0 17.7 0.00 0.03 0.03 79 1010.8
20260506220005 16 354 4.8 14.5 0.00 0.03 0.03 78 1010.9
20260506215404 16 357 6.4 16.1 0.00 0.03 0.03 78 1010.8
20260506214525 16 342 8.0 17.7 0.00 0.03 0.03 78 1010.9
20260506213604 16 343 8.0 19.3 0.00 0.03 0.03 78 1011.1
20260506212704 16 355 8.0 19.3 0.00 0.03 0.03 78 1010.9
20260506211825 16 358 8.0 17.7 0.00 0.03 0.03 78 1011.0
20260506210904 16 356 8.0 19.3 0.00 0.03 0.03 79 1011.1
20260506210004 16 352 11.3 20.9 0.00 0.03 0.03 80 1011.0
20260506205404 16 351 11.3 24.1 0.00 0.03 0.03 79 1011.0
20260506204504 16 350 11.3 19.3 0.00 0.03 0.03 80 1010.8
20260506203604 16 9 11.3 19.3 0.00 0.03 0.03 80 1011.1
20260506202704 16 2 9.7 17.7 0.00 0.03 0.03 81 1011.3
20260506201804 15 6 9.7 17.7 0.00 0.03 0.03 82 1011.5
20260506200925 15 6 9.7 17.7 0.00 0.03 0.03 83 1011.5
20260506200004 15 346 9.7 17.7 0.00 0.03 0.03 84 1011.8
20260506195425 14 343 9.7 19.3 0.00 0.03 0.03 84 1011.9
20260506194504 14 346 9.7 19.3 0.00 0.03 0.03 84 1011.8
20260506193604 13 346 11.3 19.3 0.00 0.03 0.03 85 1011.8
20260506192704 13 351 12.9 22.5 0.00 0.03 0.03 85 1011.9
20260506191804 13 333 9.7 19.3 0.00 0.03 0.03 85 1011.9
20260506190904 13 332 8.0 19.3 0.00 0.03 0.03 86 1012.0
20260506190005 13 336 9.7 17.7 0.00 0.03 0.03 86 1012.1
20260506185404 13 334 9.7 19.3 0.00 0.03 0.03 86 1012.4
20260506184504 13 343 8.0 19.3 0.00 0.03 0.03 86 1012.3
20260506183604 13 349 9.7 19.3 0.00 0.03 0.03 86 1012.1
20260506182725 13 336 8.0 19.3 0.00 0.03 0.03 86 1012.1
20260506181804 13 336 8.0 17.7 0.00 0.03 0.03 85 1012.2
20260506180904 13 355 6.4 11.3 0.00 0.03 0.03 85 1012.3
20260506180025 13 24 9.7 17.7 0.00 0.03 0.03 85 1012.2
20260506175425 13 11 9.7 19.3 0.00 0.03 0.03 85 1011.8
20260506174504 13 356 14.5 27.4 0.00 0.03 0.03 86 1011.0
20260506173625 13 360 16.1 30.6 0.00 0.03 0.03 86 1009.9
20260506172704 13 360 12.9 27.4 0.00 0.03 0.03 86 1010.1
20260506171804 13 3 11.3 24.1 0.00 0.03 0.03 86 1010.7
20260506170904 13 356 11.3 19.3 0.00 0.03 0.03 86 1011.0
20260506170004 13 7 9.7 19.3 0.00 0.03 0.03 86 1011.1
20260506165404 13 1 8.0 19.3 0.00 0.03 0.03 86 1011.3
20260506164504 13 360 6.4 14.5 0.00 0.03 0.03 86 1012.2
20260506163604 13 9 8.0 17.7 0.00 0.03 0.03 87 1012.1
20260506162704 13 10 11.3 22.5 0.00 0.03 0.03 87 1011.4
20260506161804 13 29 14.5 25.7 0.00 0.03 0.03 87 1011.1
20260506160904 13 26 14.5 24.1 0.03 0.03 0.03 88 1011.0
20260506160025 12 17 12.9 24.1 0.03 0.03 0.03 88 1011.1
20260506155404 12 16 11.3 19.3 0.03 0.03 0.03 88 1011.0
20260506154504 12 10 9.7 25.7 0.03 0.03 0.03 88 1011.2
20260506153604 12 359 8.0 16.1 0.03 0.03 0.03 88 1011.4
20260506152704 12 11 8.0 14.5 0.03 0.03 0.03 87 1011.2
20260506151804 12 357 8.0 19.3 0.03 0.03 0.03 87 1012.1
20260506150904 12 8 8.0 24.1 0.00 0.00 0.00 86 1012.0
20260506150004 12 345 9.7 24.1 0.00 0.00 0.00 85 1011.8
20260506145404 12 349 11.3 20.9 0.00 0.00 0.00 85 1012.2
20260506144504 12 333 11.3 20.9 0.00 0.00 0.00 84 1012.6
20260506143625 12 333 12.9 24.1 0.00 0.00 0.00 83 1012.9
20260506142704 12 336 11.3 22.5 0.00 0.00 0.00 83 1012.5
20260506141803 12 339 9.7 20.9 0.00 0.00 0.00 82 1011.7
20260506140904 12 347 12.9 24.1 0.00 0.00 0.00 81 1011.1
20260506140004 12 353 14.5 27.4 0.00 0.00 0.00 81 1010.7
20260506135425 13 353 12.9 27.4 0.00 0.00 0.00 80 1010.4
20260506134504 13 346 11.3 20.9 0.00 0.00 0.00 80 1011.0
20260506133604 13 348 12.9 25.7 0.00 0.00 0.00 79 1010.9
20260506132704 13 346 9.7 22.5 0.00 0.00 0.00 80 1010.6
20260506131804 13 350 12.9 24.1 0.00 0.00 0.00 80 1010.2
20260506130904 13 348 12.9 22.5 0.00 0.00 0.00 80 1009.9
20260506130005 13 359 11.3 25.7 0.00 0.00 0.00 80 1009.9
20260506125404 13 351 11.3 25.7 0.00 0.00 0.00 80 1009.8
20260506124525 13 354 11.3 27.4 0.00 0.00 0.00 80 1009.8
20260506123604 13 358 9.7 20.9 0.00 0.00 0.00 81 1009.7
20260506122725 13 353 9.7 19.3 0.00 0.00 0.00 81 1009.6
20260506121804 13 353 11.3 17.7 0.00 0.00 0.00 81 1009.4
20260506120925 13 349 11.3 25.7 0.00 0.00 0.00 81 1009.3
20260506120004 13 352 9.7 22.5 0.00 0.00 0.00 80 1009.3
20260506115404 13 353 9.7 17.7 0.00 0.00 0.00 80 1009.2
20260506114504 14 349 11.3 19.3 0.00 0.00 0.00 80 1009.2
20260506113604 14 342 9.7 19.3 0.00 0.00 0.00 80 1008.9
20260506112704 14 352 9.7 20.9 0.00 0.00 0.00 80 1008.8
20260506111804 15 346 11.3 22.5 0.00 0.00 0.00 80 1008.6
20260506110925 15 348 11.3 25.7 0.00 0.00 0.00 80 1008.4
20260506110004 15 350 9.7 22.5 0.00 0.00 0.00 80 1008.2
20260506105404 15 354 9.7 22.5 0.00 0.00 0.00 80 1008.2
20260506104504 15 348 9.7 16.1 0.00 0.00 0.00 80 1008.0
20260506103604 15 351 9.7 17.7 0.00 0.00 0.00 80 1007.9
20260506102704 15 356 9.7 19.3 0.00 0.00 0.00 80 1007.6
20260506101804 15 350 9.7 19.3 0.00 0.00 0.00 80 1007.5
20260506100904 16 347 9.7 22.5 0.00 0.00 0.00 80 1007.4
20260506100004 16 350 8.0 20.9 0.00 0.00 0.00 80 1007.2
20260506095404 16 350 8.0 16.1 0.00 0.00 0.00 80 1007.2
20260506094504 16 352 8.0 17.7 0.00 0.00 0.00 80 1006.9
20260506093604 16 349 8.0 16.1 0.00 0.00 0.00 81 1006.9
20260506092704 16 353 8.0 16.1 0.00 0.00 0.00 81 1006.9
20260506091804 16 356 6.4 14.5 0.00 0.00 0.00 81 1007.0
20260506090925 16 354 8.0 14.5 0.00 0.00 0.00 81 1007.0
20260506090004 16 352 8.0 14.5 0.00 0.00 0.00 81 1007.0
20260506085404 16 351 8.0 16.1 0.00 0.00 0.00 80 1006.9
20260506084525 17 354 6.4 16.1 0.00 0.00 0.00 80 1006.8
20260506083604 17 353 6.4 16.1 0.00 0.00 0.00 80 1006.7
20260506082704 17 18 6.4 14.5 0.00 0.00 0.00 81 1006.6
20260506081804 17 26 6.4 16.1 0.00 0.00 0.00 80 1006.5
20260506080903 17 24 6.4 12.9 0.00 0.00 0.00 80 1006.5
20260506072704 17 13 6.4 14.5 0.00 0.00 0.00 80 1006.4
20260506071804 17 7 8.0 16.1 0.00 0.00 0.00 79 1006.3
20260506070903 17 4 8.0 17.7 0.00 0.00 0.00 79 1006.4
20260506061804 18 2 8.0 17.7 0.00 0.00 0.00 78 1006.3
20260506060904 18 1 9.7 20.9 0.00 0.00 0.00 78 1006.2
20260506050905 20 6 8.0 17.7 0.00 0.00 0.00 76 1006.0
20260506044504 20 6 8.0 20.9 0.00 0.00 0.00 74 1006.0
20260506043604 20 7 11.3 20.9 0.00 0.00 0.00 74 1006.0
20260506042704 21 5 9.7 17.7 0.00 0.00 0.00 73 1005.8
20260506041804 21 358 9.7 17.7 0.00 0.00 0.00 72 1005.9
20260506040925 21 359 8.0 17.7 0.00 0.00 0.00 72 1005.8
20260506040004 21 350 11.3 22.5 0.00 0.00 0.00 71 1005.8
20260506035404 22 353 9.7 20.9 0.00 0.00 0.00 72 1005.7
20260506034504 22 360 9.7 19.3 0.00 0.00 0.00 72 1005.3
20260506033604 22 16 8.0 19.3 0.00 0.00 0.00 72 1004.9
20260506032704 22 19 9.7 16.1 0.00 0.00 0.00 71 1004.8
20260506031804 22 27 11.3 20.9 0.00 0.00 0.00 71 1004.6
20260506030904 23 23 9.7 19.3 0.00 0.00 0.00 70 1004.4
20260506030004 23 360 11.3 22.5 0.00 0.00 0.00 69 1004.6
20260506025404 23 2 9.7 22.5 0.00 0.00 0.00 69 1004.7
20260506024504 24 15 9.7 20.9 0.00 0.00 0.00 69 1004.3
20260506023603 25 354 11.3 20.9 0.00 0.00 0.00 68 1003.9
20260506022725 25 352 9.7 19.3 0.00 0.00 0.00 68 1003.8
20260506021804 25 347 6.4 17.7 0.00 0.00 0.00 67 1003.4
20260506020904 26 352 6.4 16.1 0.00 0.00 0.00 68 1003.2
20260506020025 26 355 6.4 12.9 0.00 0.00 0.00 68 1002.8